This demonstration page uses our WeatherBlox Daily Observations layout. Learn more.

Left ArrowRight Arrow

41.55636, -103.73856

Hourly Observations for October 7, 2022

Temp ( °F °C ) Dew Point ( °F °C ) Humidity (%) Winds ( mph kmh ) Pressure ( in mb ) Visibility ( mi km ) Precip ( " mm )
12:56 am 00:56 Cloudy 42 5.3 31 -0.3 67 67 SSW 3 6 30.40 1029 10 16 0.00 0.00
1:56 am 01:56 Cloudy 43 6.2 32 -0.1 64 64 S 6 9 30.40 1029 10 16 0.00 0.00
2:56 am 02:56 Cloudy 43 6 33 0.3 67 67 ESE 7 11 30.39 1029 10 16 0.00 0.00
3:56 am 03:56 Cloudy 43 5.9 34 1 71 71 S 8 13 30.40 1029 10 16 0.00 0.00
4:56 am 04:56 Cloudy 39 3.8 36 2.2 89 89 SE 9 15 30.41 1030 10 16 0.00 0.00
5:56 am 05:56 Cloudy 42 5.6 33 0.8 71 71 S 5 7 30.45 1031 10 16 0.00 0.00
6:56 am 06:56 Cloudy 41 5.2 34 1.1 75 75 S 9 15 30.45 1031 10 16 0.00 0.00
7:56 am 07:56 Cloudy 40 4.3 36 2 85 85 E 3 6 30.49 1032 10 16 0.00 0.00
8:56 am 08:56 Cloudy 42 5.7 36 2.2 78 78 SSW 5 7 30.49 1032 10 16 0.00 0.00
9:56 am 09:56 Cloudy 44 6.4 36 2.1 74 74 SSW 8 13 30.49 1032 10 16 0.00 0.00
10:56 am 10:56 Cloudy 45 7.2 35 1.7 68 68 WSW 5 7 30.49 1032 10 16 0.00 0.00
11:56 am 11:56 Cloudy 48 8.7 35 1.8 62 62 WSW 8 13 30.45 1031 10 16 0.00 0.00
12:56 pm 12:56 Cloudy 49 9.3 36 2.2 61 61 SSW 3 6 30.45 1031 10 16 0.00 0.00
1:56 pm 13:56 Cloudy 51 10.8 37 2.9 58 58 SW 3 6 30.38 1029 10 16 0.00 0.00
2:56 pm 14:56 Cloudy 52 11.2 37 3 57 57 NW 6 9 30.37 1029 10 16 0.00 0.00
3:56 pm 15:56 Cloudy 53 11.4 38 3.4 58 58 WNW 3 6 30.37 1029 10 16 0.00 0.00
4:56 pm 16:56 Cloudy 53 11.5 38 3.5 58 58 Calm 30.36 1028 10 16 0.00 0.00
5:56 pm 17:56 Cloudy 52 11.1 38 3.1 58 58 E 7 11 30.36 1028 10 16 0.00 0.00
6:56 pm 18:56 Cloudy 49 9.3 37 2.8 64 64 ESE 8 13 30.38 1029 10 16 0.00 0.00
7:56 pm 19:56 Cloudy 48 9 37 2.6 64 64 ESE 8 13 30.38 1029 10 16 0.00 0.00
8:56 pm 20:56 Mostly Cloudy 46 7.5 36 2.4 70 70 ESE 8 13 30.40 1029 10 16 0.00 0.00
9:56 pm 21:56 Clear 45 7.2 36 2.1 70 70 SSE 6 9 30.40 1029 10 16 0.00 0.00
10:56 pm 22:56 Clear 42 5.3 35 1.4 76 76 Calm 30.40 1030 10 16 0.00 0.00
11:56 pm 23:56 Clear 38 3.6 33 0.8 82 82 WSW 7 11 30.40 1030 10 16 0.00 0.00

Powered by AerisWeather